User: anonymous   Login
Location: Newark
(53.0000°N, 1.0000°W)
Time: 13:35:46
(UTC+00:00)
Language:

NOAA 19 - Orbit

View from above orbital plane
View from above orbital plane
View from above satellite
View from above satellite

Ground track
Ground track

The orbit data is extracted from the following two-line orbital elements,

1 33591U 09005A   20024.58165203 +.00000030 +00000-0 +41412-4 0  9992
2 33591 099.1932 026.1731 0014782 120.1224 240.1413 14.12393055564687
Epoch (UTC): 24 January 2020 13:57:34
Eccentricity: 0.0014782
inclination: 99.1932°
perigee height: 840 km
apogee height: 862 km
right ascension of ascending node: 26.1731°
argument of perigee: 120.1224°
revolutions per day: 14.12393055
mean anomaly at epoch: 240.1413°
orbit number at epoch: 56468

The dashed part of the orbit path shows where the satellite is in the earth's shadow,  

DLR